Address 0x211ee0129a67e7d44514152eb43d9f31103ac46b 1

Txn Hash Method
Block
From
To
Value [Txn Fee]
0x61b72fa9c9f54103ece46cd0fce93e8856e80bd06a395b23c1bcdfd1c5e94f99Transfer150189472022-05-22 6:42:424 mins ago0x211ee0129a67e7d44514152eb43d9f31103ac46bOUT0x46b6c9f1e982ebfdeedcf3e2f35e712a4929bafd1.33459459 AVAX0.0010550
0xf41db9c35ec0e2d1b5175969036a2f4bad5a66d96070f006b991db21f27be66fTransfer150185702022-05-22 6:30:0517 mins ago0xe480caf3f6b8af3087490c17e62c9b1a9bbfa10e IN 0x211ee0129a67e7d44514152eb43d9f31103ac46b3.976 AVAX0.00052525
0xfe3bab0a732c01791e75676d731a4cf66a00ca134c00ac7fc4111231ccf9fe96Transfer150184292022-05-22 6:25:2321 mins ago0x211ee0129a67e7d44514152eb43d9f31103ac46bOUT0xf951987b590a744fc46cfb248ff6702de2d69ea80.39 AVAX0.0010550
0x85a963bb610502e8092f1763e56689f1f5a4ad3a59ee9cc06f0db140d2900ee7-150184212022-05-22 6:25:0722 mins ago0x16e9a25570917eac9a1bef87a230d9529a574092 IN 0x211ee0129a67e7d44514152eb43d9f31103ac46b13.73268132 AVAX0.0007876537.5
0xf45cb04cc65e94bcecd4b8773e3a782dfb475be22d03e31c450d2f4a85017d84Transfer150179772022-05-22 6:10:1137 mins ago0x211ee0129a67e7d44514152eb43d9f31103ac46bOUT0xdca22320661b6a9a727ca9003457037dc550242516.52452748 AVAX0.0010550
0x9e8e7858b35c0578c638609fc2abc4616a7714ab26571254c3f6e304bf09a090Transfer150177102022-05-22 6:01:1345 mins ago0x211ee0129a67e7d44514152eb43d9f31103ac46bOUT0xe2746be66c286a1fddd3f230cbba8fc2b52500de1.29 AVAX0.0010550
0xddf20168b685a4550f1293e14c9d1a8cb19a32351d927c423289b193e7fd434d-150176762022-05-22 6:00:0547 mins ago0xb5cf7082d0cf0968a19a0c4833cf569da37666c6 IN 0x211ee0129a67e7d44514152eb43d9f31103ac46b8.45901206 AVAX0.0007876537.5
0xf36d3b1bb47d4d52c43f20c589bf917ecc3eae2a26eafbdea5be8884ff90f0e1Transfer150169402022-05-22 5:35:221 hr 11 mins ago0x211ee0129a67e7d44514152eb43d9f31103ac46bOUT0x1b047e9b7c14c32fd85aded46f498a11bf974a8e0.49 AVAX0.0010550
0x2624910bbd8686bb0983d8b52bfe30a51c6ce1b043411b114d65328d6dcb39b0Transfer150168502022-05-22 5:32:221 hr 14 mins ago0x211ee0129a67e7d44514152eb43d9f31103ac46bOUT0x837e06156720054e8de3af7810bd0a30fa426676719 AVAX0.0010550
0xa39b97e947d1288cebe4a3a675b1e4e5fa68ea7ceadc2951c9c4f91d033ff9c7Transfer150167782022-05-22 5:30:041 hr 17 mins ago0x7c209a5b0b926d9ad789bfe54b5afd6c175126c5 IN 0x211ee0129a67e7d44514152eb43d9f31103ac46b3.243567 AVAX0.00052525
0x0d7e140a84e16e7a465c97accc3d35f56d52e291e37a0cf04b07559c8c59767fTransfer150158812022-05-22 5:00:021 hr 47 mins ago0x225c2dfbf8e7d04e3a09fe0cf656d5c0c4ab20e8 IN 0x211ee0129a67e7d44514152eb43d9f31103ac46b8.642803 AVAX0.00052525
0xdca01061d5384202846db6660cd2a564b2236228421445d2be282f35d5704809-150155882022-05-22 4:50:071 hr 57 mins ago0x5ce88ee8a0dce89ecf0d1934f46fb569e404048a IN 0x211ee0129a67e7d44514152eb43d9f31103ac46b13.653499598486193 AVAX0.0007876537.5
0xc4f463b44db821005b8ce61f4a60cc321e0115f26a4956b5c13f8f8ee71f2100Transfer150153382022-05-22 4:41:422 hrs 5 mins ago0x211ee0129a67e7d44514152eb43d9f31103ac46bOUT0x26bd1bab53fda65b321c7fab395f5bb06f87f2ca1.89344081 AVAX0.0010550
0x4b1ec013132fe09969b2a5557238e7d1a6f5c1ad358cf83914e8b5f476ead30dTransfer150149912022-05-22 4:30:042 hrs 17 mins ago0x158cd4eac92560463701a6004f85561842621304 IN 0x211ee0129a67e7d44514152eb43d9f31103ac46b9.499475 AVAX0.00052525
0x261803fe2a216a2632fb30d3f899579c0f960ae563848b3708ce932757211ae1Transfer150147402022-05-22 4:21:412 hrs 25 mins ago0x211ee0129a67e7d44514152eb43d9f31103ac46bOUT0x9abe2f591064aa840b08271867b2828d77b0cc231.99 AVAX0.0010550
0x895078498da6fe93d521680558e8679c577e450f5d9fd16abc8bd40dfe92033aTransfer150143602022-05-22 4:09:022 hrs 38 mins ago0x211ee0129a67e7d44514152eb43d9f31103ac46bOUT0x2ef7f5c8ff380601e59e2ca09462c23487aee3b20.99 AVAX0.0010550
0x4ab58a685ce428608b7b9ba15f58817440b839c9ea73a8920b36a0515700aed9Transfer150140932022-05-22 4:00:062 hrs 47 mins ago0x6188cc3e9fd50d0a66def98b99bb3cf3087eb174 IN 0x211ee0129a67e7d44514152eb43d9f31103ac46b3.860367 AVAX0.00052525
0x891822472ee13b6effbf4fd09f728b76ff1ea7b64707bedb4e264d602c282d9dTransfer150140922022-05-22 4:00:042 hrs 47 mins ago0x158cd4eac92560463701a6004f85561842621304 IN 0x211ee0129a67e7d44514152eb43d9f31103ac46b4.999165 AVAX0.00052525
0xfc62c8013e8953c8c64b4e7259db50708e48e7cd51fea586702ec7b2e2375519Transfer150140922022-05-22 4:00:042 hrs 47 mins ago0x1bd5dfe74a01b822f6492ade8e7f3447f939532a IN 0x211ee0129a67e7d44514152eb43d9f31103ac46b99.994475 AVAX0.00052525
0x5d0944dc0b681d7b4319917a462c3379134da88f8f130473a8b942f27e36fcfeTransfer150138772022-05-22 3:52:512 hrs 54 mins ago0x211ee0129a67e7d44514152eb43d9f31103ac46bOUT0x3969a46a0cb010f5b90e8b5626e46f6e476021633.43618761 AVAX0.0010550
0x8ea135cd62c06246e4c429046794d59ccc95931ac1c19ddf5ae2ba93aa38a059-150137972022-05-22 3:50:052 hrs 57 mins ago0x0eb90394384b4d9783eeebb3554c056123ec1181 IN 0x211ee0129a67e7d44514152eb43d9f31103ac46b4.99921235 AVAX0.0007876537.5
0xd1d0d1d1065e8d90a67b13e16b169c4f51e5f9b35802aa9e3dd7ff3b8b06842cTransfer150137402022-05-22 3:48:112 hrs 59 mins ago0x211ee0129a67e7d44514152eb43d9f31103ac46bOUT0x8e429867c54a09aa349153a749a92d1e89f50a3899.98730994 AVAX0.0010550
0x46d77190e20448a489f8e778feddd182438a6d0ef99d7dc2cba08781024b967fTransfer150135562022-05-22 3:42:023 hrs 5 mins ago0x211ee0129a67e7d44514152eb43d9f31103ac46bOUT0x3b6d31b099e23ec119fe5e9c1abebe1f6cba6f9a2.0441118 AVAX0.0010550
0x1086ade6a36ef920f298ac254e694789381e704aae67b0de5491eca40a0ae99dTransfer150135262022-05-22 3:41:013 hrs 6 mins ago0x211ee0129a67e7d44514152eb43d9f31103ac46bOUT0xea04891f27ffd08b9aa6181cab2bf90c2f4987fa1.99 AVAX0.0010550
0x05ed45c3e367fd4fcbad4280ed9185eb064258db57d26aa91696caa3ab30e354Transfer150133862022-05-22 3:36:223 hrs 10 mins ago0x211ee0129a67e7d44514152eb43d9f31103ac46bOUT0x6301532981852ca1aa22a66101a769e7c7985cf02.09 AVAX0.0010550
[ Download CSV Export 
Parent Txn Hash Block From To Value
Loading

Contract Name:
0

Compiler Version
0

Optimization Enabled:
0

Other Settings:
-NA-
Block Transaction Gas Used Reward
Age Block Fee Address BC Fee Address Voting Power Jailed Incoming
Block Uncle Number Difficulty Gas Used Reward
Loading
Make sure to use the "Vote Down" button for any spammy posts, and the "Vote Up" for interesting conversations.